This is the latest recevied weather packets stored in our database for station/object M0JUI-1. If no packets are shown the sender has not sent any weather packets the latest 10 day(s).
| Time | Temp. | Humidity | Pressure | Rain* | Wind** | Luminosity | Snow |
|---|---|---|---|---|---|---|---|
| 1777474935 | 16.67° C | 56% | 1026 hPa | 0 mm | - | 511 W/m² | - |
| 1777474635 | 16.67° C | 57% | 1025.9 hPa | 0 mm | - | 510 W/m² | - |
| 1777474334 | 17.22° C | 57% | 1026.1 hPa | 0 mm | - | 502 W/m² | - |
| 1777474023 | 16.67° C | 56% | 1026 hPa | 0 mm | - | 519 W/m² | - |
| 1777473722 | 16.67° C | 57% | 1026.1 hPa | 0 mm | - | 541 W/m² | - |
| 1777473422 | 16.67° C | 56% | 1026 hPa | 0 mm | - | 534 W/m² | - |
| 1777473111 | 16.11° C | 56% | 1025.6 hPa | 0 mm | - | 546 W/m² | - |
| 1777472810 | 16.67° C | 57% | 1025.9 hPa | 0 mm | - | 555 W/m² | - |
| 1777472511 | 16.67° C | 56% | 1025.9 hPa | 0 mm | - | 573 W/m² | - |
| 1777472198 | 16.67° C | 56% | 1026.2 hPa | 0 mm | - | 558 W/m² | - |
| 1777471898 | 16.67° C | 55% | 1026 hPa | 0 mm | - | 545 W/m² | - |
| 1777471599 | 16.67° C | 54% | 1026.2 hPa | 0 mm | - | 573 W/m² | - |
| 1777471286 | 16.67° C | 54% | 1026.3 hPa | 0 mm | - | 580 W/m² | - |
| 1777470986 | 16.67° C | 55% | 1026.2 hPa | 0 mm | - | 586 W/m² | - |
| 1777470687 | 16.67° C | 55% | 1026.2 hPa | 0 mm | - | 591 W/m² | - |
| 1777470386 | 16.67° C | 54% | 1026.5 hPa | 0 mm | - | 572 W/m² | - |
| 1777470086 | 16.11° C | 54% | 1026.7 hPa | 0 mm | - | 563 W/m² | - |
| 1777469787 | 16.67° C | 54% | 1026.7 hPa | 0 mm | - | 605 W/m² | - |
| 1777469486 | 16.67° C | 54% | 1026.5 hPa | 0 mm | - | 619 W/m² | - |
| 1777469186 | 16.67° C | 53% | 1026.6 hPa | 0 mm | - | 620 W/m² | - |
| 1777468886 | 17.22° C | 54% | 1026.3 hPa | 0 mm | - | 619 W/m² | - |
| 1777468586 | 16.67° C | 53% | 1026.6 hPa | 0 mm | - | 621 W/m² | - |
| 1777468286 | 17.22° C | 55% | 1026.5 hPa | 0 mm | - | 599 W/m² | - |
| 1777467986 | 16.67° C | 55% | 1026.6 hPa | 0 mm | - | 633 W/m² | - |
| 1777467686 | 16.11° C | 54% | 1026.5 hPa | 0 mm | - | 645 W/m² | - |
* Rain latest hour (hover to see other rain measurements)
** Current wind speed in m/s (hover to see current wind gust speed)